[[{"header":{"parameterUnit":"m.s-1","parameterCategory":1,"la1":30.2991,"la2":30.254,"lo1":-89.0895,"lo2":-89.0444,"dy":0.0017,"dx":0.0017,"nx":28,"ny":28,"refTime":"2023-10-05T09:00:00:Z","depth":0,"parameterNumber":2,"parameterNumberName":"U-component_of_WINDS"},"data":[0,0,0,0,0,0,0,0,0,0,0,0,0,0,0,0,0,0,0,0,0,0,0,0,0,0,0,0,0,0,0,0,0,0,0,0,0,0,0,0,0,0,0,0,0,0,0,0,0,0,0,0,0,0,0,0,0,0,-2.5458,-2.5458,0,-2.547,-2.547,-2.5471,-2.5387,-2.5385,-2.5383,-2.538,-2.5394,-2.5396,-2.5399,0,0,0,0,0,0,0,0,0,0,0,0,0,-2.5363,-2.5365,-2.5458,-2.5458,-2.5458,-2.547,-2.547,-2.5471,-2.5388,-2.5385,-2.5382,-2.5379,-2.5393,-2.5396,-2.5399,0,0,0,0,0,0,0,0,0,0,0,0,0,-2.5393,-2.5366,-2.5458,-2.5418,-2.5415,-2.547,-2.547,-2.5471,-2.5388,-2.5385,-2.5381,-2.5378,-2.5392,-2.5396,-2.5399,-2.5494,0,0,-2.5411,-2.5413,0,0,0,0,0,0,0,0,-2.5391,-2.5396,-2.5424,-2.5421,-2.5417,-2.5424,-2.5442,-2.5478,-2.5389,-2.5398,-2.538,-2.5376,-2.5407,-2.5409,-2.5419,-2.5494,-2.5495,-2.5411,-2.5414,-2.5415,-2.5416,0,0,0,0,0,0,0,-2.5389,-2.5395,-2.5463,-2.5424,-2.542,-2.54,-2.54,-2.5448,-2.5422,-2.5397,-2.5391,-2.5394,-2.5404,-2.5416,-2.5419,-2.5495,-2.5411,-2.5415,-2.5417,-2.5419,-2.5648,-2.5652,0,0,0,0,0,0,-2.5392,-2.5394,-2.5462,-2.5463,-2.5395,-2.5405,-2.5405,-2.5425,-2.5421,-2.5417,-2.5397,-2.539,-2.5411,-2.5414,-2.5419,-2.5528,-2.5415,-2.5419,-2.5421,-2.5644,-2.5649,-2.5653,0,0,0,0,0,0,-2.5391,-2.5399,-2.5462,-2.5427,-2.5433,-2.541,-2.5433,-2.5427,-2.5439,-2.5421,-2.5416,-2.5413,-2.5408,-2.5414,-2.5476,-2.5528,-2.5421,-2.5424,-2.564,-2.5646,-2.5651,-2.5749,0,0,0,0,0,0,-2.5388,-2.5399,-2.5434,-2.5428,-2.5436,-2.5518,-2.5437,-2.543,-2.5445,-2.5436,-2.5435,-2.5432,-2.5406,-2.547,-2.5479,-2.5531,-2.5427,-2.5635,-2.5642,-2.5649,-2.5741,-2.5757,-2.5771,0,0,0,0,0,-2.5385,-2.5462,-2.5437,-2.5445,-2.5479,-2.5521,-2.5526,-2.5494,-2.545,-2.5485,-2.5474,-2.5432,-2.5521,-2.5477,-2.5487,-2.5541,-2.5631,-2.564,-2.5648,-2.5734,-2.5754,-2.5771,0,0,0,0,0,0,-2.5475,-2.546,-2.5432,-2.5509,-2.5517,-2.5507,-2.5551,-2.5516,-2.5537,-2.5528,-2.5488,-2.5489,-2.5558,-2.5555,-2.5507,-2.5632,-2.5568,-2.5579,-2.563,-2.5649,-2.5664,-2.5663,-2.543,0,0,0,0,0,-2.5503,-2.5539,-2.5524,-2.5593,-2.5599,-2.5575,-2.5592,-2.5567,-2.5574,-2.5577,-2.557,-2.5578,-2.5608,-2.5629,-2.5655,-2.5741,-2.5739,-2.5782,-2.5798,-2.581,-2.582,-2.5864,-2.5883,-2.5681,-2.5681,-2.5681,0,0,-2.5563,-2.5559,-2.5584,-2.5611,-2.5615,-2.5652,-2.5578,-2.5621,-2.5648,-2.5583,-2.5641,-2.5637,-2.5644,-2.5718,-2.575,-2.5718,-2.5875,-2.5821,-2.5831,-2.5834,-2.5875,-2.5894,-2.5911,-2.5687,-2.5686,-2.5685,0,0,-2.569,-2.5692,-2.5749,-2.5754,-2.576,-2.5743,-2.5757,-2.5753,-2.5747,-2.5805,-2.5757,-2.5789,-2.5842,-2.5848,-2.5859,-2.599,-2.5951,-2.6,-2.6079,-2.6123,-2.6139,-2.6153,-2.6199,-2.6216,-2.6009,-2.601,-2.601,0,-2.5764,-2.5818,-2.5783,-2.5829,-2.5843,-2.5786,-2.5844,-2.585,-2.5865,-2.5876,-2.584,-2.5904,-2.5905,-2.5979,-2.6011,-2.6022,-2.6037,-2.5999,-2.6139,-2.6153,-2.6165,-2.6209,-2.6226,-2.6015,-2.6015,-2.6014,-2.6014,0,-2.5908,-2.5946,-2.5992,-2.6007,-2.6026,-2.6078,-2.6051,-2.6074,-2.6048,-2.6036,-2.6095,-2.6094,-2.6119,-2.6135,-2.611,-2.6207,-2.6187,-2.6146,-2.6081,-2.6191,-2.6231,-2.6248,-2.6024,-2.6022,-2.602,-2.6019,0,0,-2.6091,-2.6086,-2.6104,-2.611,-2.6113,-2.6142,-2.6192,-2.6216,-2.6236,-2.6249,-2.6289,-2.6335,-2.6297,-2.6309,-2.6285,-2.6324,-2.6427,-2.6278,-2.6277,-2.6305,-2.6533,-2.6563,-2.6583,-2.6402,-2.6405,-2.6407,-2.6532,0,-2.6215,-2.6299,-2.6269,-2.6355,-2.639,-2.6337,-2.638,-2.6387,-2.6376,-2.6405,-2.6394,-2.6427,-2.6374,-2.6381,-2.6417,-2.6407,-2.6472,-2.6397,-2.6439,-2.6441,-2.6438,-2.6604,-2.6636,-2.6753,-2.6547,-2.655,-2.6552,0,-2.637,-2.6389,-2.6478,-2.6474,-2.6488,-2.6527,-2.6547,-2.6575,-2.6582,-2.6572,-2.6586,-2.6553,-2.6601,-2.6538,-2.6604,-2.6554,-2.657,-2.6567,-2.6571,-2.6573,-2.6503,-2.661,-2.679,-2.6808,-2.6577,-2.6575,-2.6573,0,-2.6494,-2.6541,-2.6601,-2.6608,-2.6605,-2.6634,-2.6635,-2.6638,-2.6654,-2.6672,-2.6683,-2.6706,-2.6719,-2.6738,-2.6713,-2.6669,-2.6783,-2.6718,-2.6776,-2.6777,-2.6801,-2.68,-2.6986,-2.6813,-2.6813,-2.6813,-2.6812,0,-2.6635,-2.6692,-2.6656,-2.6693,-2.6755,-2.6721,-2.6783,-2.6777,-2.6781,-2.6815,-2.6771,-2.6805,-2.6769,-2.68,-2.6781,-2.6838,-2.6845,-2.6838,-2.6832,-2.6841,-2.6842,-2.685,-2.6841,-2.6817,-2.6816,-2.6815,-2.6815,0,-2.6784,-2.6763,-2.6824,-2.6816,-2.6816,-2.6862,-2.6856,-2.6889,-2.6876,-2.6921,-2.6929,-2.6909,-2.6942,-2.6919,-2.6953,-2.694,-2.7016,-2.6999,-2.7013,-2.7008,-2.7068,-2.7062,-2.7265,-2.729,-2.7101,-2.7103,-2.7105,0,-2.6875,-2.6917,-2.6915,-2.6935,-2.6938,-2.6971,-2.6987,-2.6956,-2.6975,-2.6986,-2.7018,-2.7048,-2.707,-2.7126,-2.7114,-2.714,-2.7123,-2.7192,-2.7126,-2.7134,-2.7123,-2.712,-2.7124,-2.7205,-2.7207,-2.7209,-2.721,0,-2.7039,-2.7026,-2.7052,-2.7074,-2.7095,-2.7111,-2.7124,-2.7143,-2.7111,-2.7135,-2.7168,-2.7185,-2.722,-2.725,-2.7271,-2.7271,-2.7236,-2.7231,-2.7246,-2.7256,-2.7262,-2.7259,-2.7049,-2.7227,-2.7225,-2.7224,-2.7223,-2.7222,-2.7161,-2.7196,-2.7199,-2.723,-2.7236,-2.7248,-2.7279,-2.727,-2.7298,-2.7323,-2.7303,-2.7343,-2.7348,-2.7373,-2.7378,-2.7409,-2.7381,-2.7402,-2.7408,-2.7413,-2.7421,-2.7258,-2.7413,-2.7413,-2.7412,-2.7412,-2.7411,0,-2.7322,-2.7322,-2.735,-2.7368,-2.7392,-2.7357,-2.7369,-2.7391,-2.7427,-2.7435,-2.7457,-2.7496,-2.7525,-2.7516,-2.7542,-2.7569,-2.7553,-2.7577,-2.7574,-2.7575,-2.7446,-2.743,-2.7589,-2.7589,-2.7589,-2.7589,-2.7589,-2.7589,-2.7408,-2.7465,-2.7453,-2.7513,-2.7512,-2.7551,-2.7561,-2.7573,-2.7579,-2.7624,-2.7648,-2.7641,-2.7643,-2.7668,-2.7694,-2.769,-2.7702,-2.7731,-2.7722,-2.7601,-2.7584,-2.7567,-2.7552,-2.7734,-2.7734,-2.7848,-2.7849,-2.785]},{"header":{"parameterUnit":"m.s-1","parameterCategory":1,"la1":30.2991,"la2":30.254,"lo1":-89.0895,"lo2":-89.0444,"dy":0.0017,"dx":0.0017,"nx":28,"ny":28,"refTime":"2023-10-05T09:00:00:Z","depth":0,"parameterNumber":3,"parameterNumberName":"V-component_of_WINDS"},"data":[0,0,0,0,0,0,0,0,0,0,0,0,0,0,0,0,0,0,0,0,0,0,0,0,0,0,0,0,0,0,0,0,0,0,0,0,0,0,0,0,0,0,0,0,0,0,0,0,0,0,0,0,0,0,0,0,0,0,1.9836,1.9836,0,1.9804,1.9803,1.9803,1.9707,1.9705,1.9703,1.9701,1.967,1.9671,1.9672,0,0,0,0,0,0,0,0,0,0,0,0,0,1.9818,1.9819,1.9836,1.9836,1.9835,1.9804,1.9803,1.9803,1.9708,1.9705,1.9702,1.97,1.967,1.9671,1.9672,0,0,0,0,0,0,0,0,0,0,0,0,0,1.981,1.9819,1.9836,1.9784,1.9779,1.9804,1.9803,1.9803,1.9708,1.9705,1.9702,1.9699,1.9669,1.9671,1.9673,1.9746,0,0,1.9678,1.9678,0,0,0,0,0,0,0,0,1.9811,1.9811,1.9792,1.9787,1.9782,1.9756,1.9785,1.9784,1.9709,1.9735,1.9701,1.9697,1.9701,1.97,1.9701,1.9745,1.9743,1.9678,1.9679,1.968,1.968,0,0,0,0,0,0,0,1.9811,1.9812,1.9823,1.9792,1.9786,1.9763,1.9758,1.9785,1.9736,1.9733,1.9725,1.9723,1.9698,1.97,1.97,1.9743,1.9678,1.9679,1.968,1.9681,1.9846,1.9849,0,0,0,0,0,0,1.9819,1.9813,1.9824,1.9822,1.9789,1.9766,1.9761,1.9768,1.9736,1.9728,1.9726,1.9719,1.9698,1.9698,1.9698,1.9782,1.968,1.9681,1.9682,1.9843,1.9847,1.985,0,0,0,0,0,0,1.9819,1.9821,1.9826,1.9816,1.9814,1.9769,1.9778,1.9769,1.977,1.9731,1.9722,1.9736,1.9696,1.9696,1.9735,1.978,1.9682,1.9684,1.9839,1.9844,1.9849,1.9951,0,0,0,0,0,0,1.9819,1.9821,1.9848,1.9817,1.9815,1.9862,1.9781,1.977,1.9773,1.9764,1.9738,1.9731,1.9693,1.9733,1.9737,1.978,1.9685,1.9834,1.9841,1.9847,1.9943,1.9959,1.9972,0,0,0,0,0,1.9818,1.9878,1.985,1.9852,1.9848,1.9865,1.9864,1.9819,1.9777,1.9804,1.9779,1.9731,1.9775,1.9738,1.9741,1.9786,1.9831,1.9839,1.9846,1.9937,1.9956,1.9972,0,0,0,0,0,0,1.9916,1.9873,1.9841,1.9893,1.9883,1.9849,1.9881,1.9841,1.9843,1.9834,1.978,1.9775,1.9822,1.9808,1.9767,1.9856,1.9795,1.9804,1.9863,1.988,1.9894,1.9896,1.9686,0,0,0,0,0,1.9944,1.9961,1.9923,1.9972,1.9969,1.9926,1.9932,1.9899,1.9887,1.9882,1.986,1.9851,1.9862,1.9871,1.9879,1.9942,1.9935,1.9974,1.9989,2.0001,2.0008,2.004,2.0057,1.9875,1.9875,1.9875,0,0,2.0001,1.9979,1.9993,1.9991,1.9979,1.9999,1.9923,1.9947,1.9961,1.9886,1.9921,1.9905,1.9891,1.9942,1.9964,1.9932,2.0057,2.001,2.002,2.0021,2.005,2.0067,2.0083,1.988,1.9879,1.9879,0,0,2.0114,2.01,2.0139,2.013,2.0113,2.0085,2.0095,2.0067,2.0053,2.0087,2.0032,2.0049,2.007,2.0062,2.0061,2.0174,2.0131,2.0179,2.0253,2.0285,2.03,2.0312,2.0352,2.0367,2.0187,2.0187,2.0187,0,2.0187,2.0213,2.0165,2.0192,2.0193,2.0126,2.0166,2.016,2.0148,2.015,2.0115,2.014,2.0127,2.0175,2.0203,2.0205,2.0214,2.018,2.0302,2.0314,2.0324,2.0362,2.0377,2.0193,2.0192,2.0192,2.0191,0,2.0303,2.0322,2.0356,2.0346,2.0351,2.0385,2.0342,2.0353,2.0321,2.0296,2.0333,2.0315,2.0318,2.0328,2.0296,2.0372,2.0353,2.0311,2.0249,2.0348,2.0383,2.0397,2.0202,2.0199,2.0198,2.0196,0,0,2.0474,2.0438,2.0451,2.0446,2.0424,2.0439,2.0471,2.0474,2.0484,2.0479,2.0504,2.0524,2.0485,2.0485,2.0452,2.048,2.0571,2.0434,2.0433,2.0459,2.0654,2.0684,2.0702,2.0543,2.0545,2.0547,2.0654,0,2.0581,2.0631,2.0589,2.0648,2.0665,2.0604,2.0631,2.0622,2.0601,2.0613,2.059,2.0605,2.0553,2.0552,2.0578,2.0554,2.0609,2.0546,2.0565,2.0567,2.0569,2.072,2.0752,2.0854,2.0668,2.067,2.0671,0,2.071,2.0711,2.0771,2.0746,2.0752,2.0778,2.0778,2.079,2.0779,2.0762,2.0762,2.0722,2.0752,2.0693,2.0734,2.0692,2.0698,2.0688,2.0691,2.069,2.0624,2.0721,2.0885,2.09,2.0692,2.069,2.0689,0,2.0828,2.0844,2.0882,2.088,2.0852,2.0872,2.0861,2.0847,2.0852,2.0853,2.0855,2.086,2.0863,2.0868,2.0831,2.0791,2.0877,2.0814,2.0863,2.0864,2.0882,2.0881,2.1048,2.0889,2.0889,2.0889,2.0888,0,2.095,2.0989,2.0935,2.0958,2.1,2.0954,2.0997,2.098,2.0969,2.0988,2.0936,2.0956,2.0906,2.0921,2.0893,2.0931,2.0933,2.092,2.0912,2.0924,2.0925,2.0926,2.0917,2.0893,2.0892,2.0891,2.089,0,2.1088,2.1053,2.109,2.1062,2.1056,2.1088,2.1064,2.1085,2.1061,2.1087,2.1091,2.1054,2.1069,2.1033,2.1043,2.1024,2.1078,2.1059,2.1082,2.1075,2.1126,2.1122,2.1298,2.1318,2.1148,2.1149,2.1151,0,2.1167,2.1196,2.1171,2.118,2.1172,2.1188,2.1193,2.1149,2.1156,2.1147,2.1169,2.118,2.1186,2.1213,2.1188,2.1195,2.1175,2.1237,2.1176,2.1188,2.1175,2.1173,2.1176,2.1249,2.1251,2.1252,2.1254,0,2.1311,2.1293,2.1302,2.1305,2.1313,2.1313,2.131,2.1321,2.1275,2.1286,2.13,2.1305,2.1316,2.1327,2.133,2.132,2.128,2.1274,2.1285,2.1297,2.1308,2.1302,2.1114,2.1269,2.1268,2.1266,2.1266,2.1265,2.1421,2.1444,2.143,2.1442,2.1435,2.1434,2.1453,2.1432,2.1443,2.1447,2.1422,2.1442,2.1431,2.143,2.1425,2.1441,2.1413,2.143,2.1434,2.1439,2.1447,2.1307,2.1441,2.1441,2.144,2.144,2.144,0,2.1562,2.155,2.1562,2.1559,2.1569,2.1531,2.1527,2.1537,2.1556,2.1549,2.1556,2.1574,2.1585,2.1562,2.157,2.1587,2.1569,2.1591,2.1588,2.1586,2.1471,2.146,2.1605,2.1605,2.1605,2.1605,2.1605,2.1605,2.1636,2.1672,2.1653,2.1686,2.1674,2.1693,2.1694,2.1693,2.1688,2.1709,2.1719,2.1703,2.169,2.1697,2.1706,2.1699,2.1704,2.1732,2.1718,2.1611,2.1595,2.1579,2.1568,2.1734,2.1734,2.1832,2.1833,2.1833]}]]